Time,TemperatureF,DewpointF,PressureIn,WindDirection,WindDirectionDegrees,WindSpeedMPH,WindSpeedGustMPH,Humidity,HourlyPrecipIn,Conditions,Clouds,dailyrainin,SolarRadiationWatts/m^2,SoftwareType,DateUTC
2013-01-06 12:51:00,37.0,25.0,-100.00,NNE,26,2.0,7.0,61,0.11,,,0.11,286.000000,,2013-01-06 20:51:00,
2013-01-06 13:22:00,37.0,25.0,-100.00,NNE,26,2.0,7.0,61,0.11,,,0.11,286.000000,,2013-01-06 21:22:00,
2013-01-06 13:33:00,37.0,25.0,-100.00,NNE,26,2.0,7.0,61,0.11,,,0.11,286.000000,,2013-01-06 21:33:00,
2013-01-06 13:42:00,37.0,25.0,-100.00,NNE,26,2.0,7.0,61,0.11,,,0.11,286.000000,,2013-01-06 21:42:00,
2013-01-06 13:51:00,35.0,24.0,-100.00,NNE,13,2.0,7.0,64,0.06,,,0.17,196.000000,,2013-01-06 21:51:00,
2013-01-06 14:12:00,35.0,24.0,-100.00,NNE,13,2.0,7.0,64,0.06,,,0.17,196.000000,,2013-01-06 22:12:00,
2013-01-06 14:22:00,35.0,24.0,-100.00,NNE,13,2.0,7.0,64,0.06,,,0.17,196.000000,,2013-01-06 22:22:00,
2013-01-06 14:33:00,35.0,24.0,-100.00,NNE,13,2.0,7.0,64,0.06,,,0.17,196.000000,,2013-01-06 22:33:00,
2013-01-06 14:42:00,35.0,24.0,-100.00,NNE,13,2.0,7.0,64,0.06,,,0.17,196.000000,,2013-01-06 22:42:00,
2013-01-06 14:51:00,33.0,18.0,-100.00,NE,38,3.0,7.0,54,0.02,,,0.19,199.000000,,2013-01-06 22:51:00,
2013-01-06 15:12:00,33.0,18.0,-100.00,NE,38,3.0,7.0,54,0.02,,,0.19,199.000000,,2013-01-06 23:12:00,
2013-01-06 15:22:00,33.0,18.0,-100.00,NE,38,3.0,7.0,54,0.02,,,0.19,199.000000,,2013-01-06 23:22:00,
2013-01-06 15:32:00,33.0,18.0,-100.00,NE,38,3.0,7.0,54,0.02,,,0.19,199.000000,,2013-01-06 23:32:00,
2013-01-06 15:42:00,33.0,18.0,-100.00,NE,38,3.0,7.0,54,0.02,,,0.19,199.000000,,2013-01-06 23:42:00,
2013-01-06 15:51:00,33.0,21.0,-100.00,North,1,0.0,3.0,62,0.00,,,0.19,85.000000,,2013-01-06 23:51:00,
2013-01-06 16:23:00,33.0,21.0,-100.00,North,1,0.0,3.0,62,0.00,,,0.19,85.000000,,2013-01-07 00:23:00,
2013-01-06 16:32:00,33.0,21.0,-100.00,North,1,0.0,3.0,62,0.00,,,0.19,85.000000,,2013-01-07 00:32:00,
2013-01-06 16:42:00,33.0,21.0,-100.00,North,1,0.0,3.0,62,0.00,,,0.19,85.000000,,2013-01-07 00:42:00,
2013-01-06 16:51:00,29.0,21.0,-100.00,NNW,336,0.0,3.0,73,0.00,,,0.19,53.000000,,2013-01-07 00:51:00,
2013-01-06 17:22:00,29.0,21.0,-100.00,NNW,336,0.0,3.0,73,0.00,,,0.19,53.000000,,2013-01-07 01:22:00,
2013-01-06 17:32:00,29.0,21.0,-100.00,NNW,336,0.0,3.0,73,0.00,,,0.19,53.000000,,2013-01-07 01:32:00,
2013-01-06 17:42:00,29.0,21.0,-100.00,NNW,336,0.0,3.0,73,0.00,,,0.19,53.000000,,2013-01-07 01:42:00,
2013-01-06 17:51:00,27.0,22.0,-100.00,West,263,0.0,1.0,82,0.00,,,0.19,2.000000,,2013-01-07 01:51:00,
2013-01-06 18:22:00,27.0,22.0,-100.00,West,263,0.0,1.0,82,0.00,,,0.19,2.000000,,2013-01-07 02:22:00,
2013-01-06 18:32:00,27.0,22.0,-100.00,West,263,0.0,1.0,82,0.00,,,0.19,2.000000,,2013-01-07 02:32:00,
2013-01-06 18:42:00,27.0,22.0,-100.00,West,263,0.0,1.0,82,0.00,,,0.19,2.000000,,2013-01-07 02:42:00,
2013-01-06 18:51:00,27.0,23.0,-100.00,ENE,71,0.0,2.0,86,0.00,,,0.19,1.000000,,2013-01-07 02:51:00,
2013-01-06 19:22:00,27.0,23.0,-100.00,ENE,71,0.0,2.0,86,0.00,,,0.19,1.000000,,2013-01-07 03:22:00,
2013-01-06 19:32:00,27.0,23.0,-100.00,ENE,71,0.0,2.0,86,0.00,,,0.19,1.000000,,2013-01-07 03:32:00,
2013-01-06 19:42:00,27.0,23.0,-100.00,ENE,71,0.0,2.0,86,0.00,,,0.19,1.000000,,2013-01-07 03:42:00,
2013-01-06 19:51:00,29.0,23.0,-100.00,NNE,14,2.0,9.0,78,0.00,,,0.19,1.000000,,2013-01-07 03:51:00,
2013-01-06 20:12:00,29.0,23.0,-100.00,NNE,14,2.0,9.0,78,0.00,,,0.19,1.000000,,2013-01-07 04:12:00,
2013-01-06 20:22:00,29.0,23.0,-100.00,NNE,14,2.0,9.0,78,0.00,,,0.19,1.000000,,2013-01-07 04:22:00,
2013-01-06 20:32:00,29.0,23.0,-100.00,NNE,14,2.0,9.0,78,0.00,,,0.19,1.000000,,2013-01-07 04:32:00,
2013-01-06 20:42:00,29.0,23.0,-100.00,NNE,14,2.0,9.0,78,0.00,,,0.19,1.000000,,2013-01-07 04:42:00,
2013-01-06 20:51:00,27.0,22.0,-100.00,NNW,346,3.0,8.0,81,0.00,,,0.19,1.000000,,2013-01-07 04:51:00,
2013-01-06 21:12:00,27.0,22.0,-100.00,NNW,346,3.0,8.0,81,0.00,,,0.19,1.000000,,2013-01-07 05:12:00,
2013-01-06 21:22:00,27.0,22.0,-100.00,NNW,346,3.0,8.0,81,0.00,,,0.19,1.000000,,2013-01-07 05:22:00,
2013-01-06 21:32:00,27.0,22.0,-100.00,NNW,346,3.0,8.0,81,0.00,,,0.19,1.000000,,2013-01-07 05:32:00,
2013-01-06 21:42:00,27.0,22.0,-100.00,NNW,346,3.0,8.0,81,0.00,,,0.19,1.000000,,2013-01-07 05:42:00,
2013-01-06 21:51:00,28.0,22.0,-100.00,North,350,3.0,6.0,78,0.00,,,0.19,1.000000,,2013-01-07 05:51:00,
2013-01-06 22:12:00,28.0,22.0,-100.00,North,350,3.0,6.0,78,0.00,,,0.19,1.000000,,2013-01-07 06:12:00,
2013-01-06 22:22:00,28.0,22.0,-100.00,North,350,3.0,6.0,78,0.00,,,0.19,1.000000,,2013-01-07 06:22:00,
2013-01-06 22:32:00,28.0,22.0,-100.00,North,350,3.0,6.0,78,0.00,,,0.19,1.000000,,2013-01-07 06:32:00,
2013-01-06 22:42:00,28.0,22.0,-100.00,North,350,3.0,6.0,78,0.00,,,0.19,1.000000,,2013-01-07 06:42:00,
2013-01-06 22:51:00,26.0,20.0,-100.00,North,357,3.0,10.0,79,0.00,,,0.19,1.000000,,2013-01-07 06:51:00,
2013-01-06 23:12:00,26.0,20.0,-100.00,North,357,3.0,10.0,79,0.00,,,0.19,1.000000,,2013-01-07 07:12:00,
2013-01-06 23:22:00,26.0,20.0,-100.00,North,357,3.0,10.0,79,0.00,,,0.19,1.000000,,2013-01-07 07:22:00,
2013-01-06 23:32:00,26.0,20.0,-100.00,North,357,3.0,10.0,79,0.00,,,0.19,1.000000,,2013-01-07 07:32:00,
2013-01-06 23:42:00,26.0,20.0,-100.00,North,357,3.0,10.0,79,0.00,,,0.19,1.000000,,2013-01-07 07:42:00,
2013-01-06 23:51:00,23.0,18.0,-100.00,SE,129,2.0,11.0,82,0.00,,,0.19,1.000000,,2013-01-07 07:51:00,